Weather History for Blue Canyon, CA

Change the Weather History Date:

Saturday, June 21, 2014

  Actual Average Record
Temperature  
Mean Temperature 66 °F -  
Max Temperature 73 °F 73 °F 90 °F (1961)
Min Temperature 60 °F 55 °F 43 °F (1952)
Cooling Degree Days 2    
Growing Degree Days 16 (Base 50)    
Moisture  
Dew Point 23 °F    
Average Humidity 22    
Maximum Humidity 41    
Minimum Humidity 10    
Precipitation  
Precipitation 0.00 in - - ()
Sea Level Pressure  
Sea Level Pressure 29.83 in    
Wind  
Wind Speed 6 mph (SSE)    
Max Wind Speed 15 mph    
Max Gust Speed 21 mph    
Visibility 10 miles    
Events      
Averages and records for this station are not official NWS values.
T = Trace of Precipitation, MM = Missing Value Source: NWS Daily Summary

Daily Weather History Graph

Daily Weather History Graph

Search for Another Location

Airport:

Trip Planner

Search our weather history database for the weather conditions in past years. The results will help you decide how hot, cold, wet, or windy it might be!

Date:

Astronomy

Jun. 21, 2014 Rise Set
Actual Time 5:36 AM PDT 8:32 PM PDT
Civil Twilight 5:04 AM PDT 9:05 PM PDT
Nautical Twilight 4:23 AM PDT 9:46 PM PDT
Astronomical Twilight 3:36 AM PDT 10:33 PM PDT
Moon 1:50 AM PDT (6/21) 3:18 PM PDT (6/21)
Length of Visible Light 16h 01m
Length of Day
14h 56m
Waning Crescent, 29% of the Moon is Illuminated
Jun 21
Waning Crescent
Jun 27
New
Jul 5
First Quarter
Jul 12
Full
Jul 18
Last Quarter

Hourly Weather History & Observations

Time (PDT) Temp. Dew Point Humidity Pressure Visibility Wind Dir Wind Speed Gust Speed Precip Events Conditions
12:52 AM 60.1 °F 35.1 °F 39% 29.86 in 10.0 mi ESE 3.5 mph - N/A   Clear
1:52 AM 61.0 °F 34.0 °F 36% 29.85 in 10.0 mi ESE 3.5 mph - N/A   Clear
2:52 AM 61.0 °F 30.9 °F 32% 29.84 in 10.0 mi ESE 4.6 mph - N/A   Clear
3:52 AM 62.1 °F 26.1 °F 25% 29.83 in 10.0 mi SE 4.6 mph - N/A   Clear
4:52 AM 61.0 °F 24.1 °F 24% 29.82 in 10.0 mi SE 5.8 mph - N/A   Clear
5:52 AM 61.0 °F 16.0 °F 17% 29.84 in 10.0 mi SE 4.6 mph - N/A   Clear
6:52 AM 61.0 °F 16.0 °F 17% 29.84 in 10.0 mi SE 4.6 mph - N/A   Clear
7:52 AM 64.0 °F 19.0 °F 18% 29.83 in 10.0 mi SE 4.6 mph - N/A   Clear
8:52 AM 66.9 °F 17.1 °F 15% 29.83 in 10.0 mi SSE 10.4 mph - N/A   Clear
9:52 AM 68.0 °F 16.0 °F 14% 29.83 in 10.0 mi South 12.7 mph - N/A   Clear
10:52 AM 69.1 °F 19.0 °F 15% 29.83 in 10.0 mi South 11.5 mph - N/A   Clear
11:52 AM 71.1 °F 16.0 °F 12% 29.84 in 10.0 mi South 12.7 mph - N/A   Clear
12:52 PM 72.0 °F 18.0 °F 13% 29.84 in 10.0 mi South 12.7 mph - N/A   Clear
1:52 PM 73.0 °F 12.0 °F 10% 29.83 in 10.0 mi South 15.0 mph 20.7 mph N/A   Clear
2:52 PM 73.0 °F 17.1 °F 12% 29.82 in 10.0 mi SSW 9.2 mph 17.3 mph N/A   Clear
3:52 PM 73.0 °F 14.0 °F 11% 29.82 in 10.0 mi South 11.5 mph - N/A   Clear
4:52 PM 72.0 °F 15.1 °F 11% 29.82 in 10.0 mi South 12.7 mph 19.6 mph N/A   Clear
5:52 PM 71.1 °F 19.0 °F 14% 29.82 in 10.0 mi SW 10.4 mph - N/A   Clear
6:52 PM 70.0 °F 24.1 °F 18% 29.82 in 10.0 mi South 6.9 mph - N/A   Clear
7:52 PM 66.9 °F 28.0 °F 23% 29.82 in 10.0 mi SW 4.6 mph - N/A   Clear
8:52 PM 64.0 °F 33.1 °F 31% 29.82 in 10.0 mi SSW 3.5 mph - N/A   Clear
9:52 PM 61.0 °F 37.0 °F 41% 29.84 in 10.0 mi Calm Calm - N/A   Clear
10:52 PM 62.1 °F 35.1 °F 37% 29.83 in 10.0 mi ENE 3.5 mph - N/A   Clear
11:52 PM 60.1 °F 36.0 °F 41% 29.83 in 10.0 mi ENE 3.5 mph - N/A   Clear